owner,sensor,date,latitude,longitude,vertical_datum,direction_of_sea_water_velocity,sea_water_speed,upward_sea_water_velocity,qcFlag 
TABS,ioos:station:wmo:42045:1,2010-04-01T00:00:00Z,26.2168,-96.4998,2.0,101.8659708,11.72045221,-99999.0,'11111222,11111222,99999999' 
TABS,ioos:station:wmo:42045:1,2010-04-01T00:30:00Z,26.2168,-96.4998,2.0,102.6595902,8.076341994,-99999.0,'11133222,11111222,99999999' 
TABS,ioos:station:wmo:42045:1,2010-04-01T01:00:00Z,26.2168,-96.4998,2.0,89.20550422,6.490624007,-99999.0,'11133222,11111222,99999999' 
TABS,ioos:station:wmo:42045:1,2010-04-01T01:30:00Z,26.2168,-96.4998,2.0,62.24152431,6.441273166,-99999.0,'11133222,11111222,99999999' 
TABS,ioos:station:wmo:42045:1,2010-04-01T02:00:00Z,26.2168,-96.4998,2.0,40.63230285,6.035006214,-99999.0,'11133222,11111222,99999999' 
TABS,ioos:station:wmo:42045:1,2010-04-01T02:30:00Z,26.2168,-96.4998,2.0,351.5397723,5.641391672,-99999.0,'11133222,11111222,99999999' 
TABS,ioos:station:wmo:42045:1,2010-04-01T03:00:00Z,26.2168,-96.4998,2.0,1.691103768,8.133541664,-99999.0,'11133222,11111222,99999999' 
TABS,ioos:station:wmo:42045:1,2010-04-01T03:30:00Z,26.2168,-96.4998,2.0,349.9861788,10.92646329,-99999.0,'11111222,11111222,99999999' 
TABS,ioos:station:wmo:42045:1,2010-04-01T04:00:00Z,26.2168,-96.4998,2.0,0.440937501,13.00038461,-99999.0,'11111222,11111222,99999999' 
TABS,ioos:station:wmo:42045:1,2010-04-01T04:30:00Z,26.2168,-96.4998,2.0,358.2075048,12.78625825,-99999.0,'11111222,11111222,99999999' 
TABS,ioos:station:wmo:42045:1,2010-04-01T05:00:00Z,26.2168,-96.4998,2.0,354.9805965,16.91487215,-99999.0,'11111222,11111222,99999999' 
TABS,ioos:station:wmo:42045:1,2010-04-01T05:30:00Z,26.2168,-96.4998,2.0,347.1619807,18.67690017,-99999.0,'11111222,11111222,99999999' 
TABS,ioos:station:wmo:42045:1,2010-04-01T06:00:00Z,26.2168,-96.4998,2.0,352.6992779,18.17737605,-99999.0,'11111222,11111222,99999999' 
TABS,ioos:station:wmo:42045:1,2010-04-01T06:30:00Z,26.2168,-96.4998,2.0,349.4790414,19.66054424,-99999.0,'11111222,11111222,99999999' 
TABS,ioos:station:wmo:42045:1,2010-04-01T07:00:00Z,26.2168,-96.4998,2.0,0.333514701,17.19029086,-99999.0,'11111222,11111222,99999999' 
TABS,ioos:station:wmo:42045:1,2010-04-01T07:30:00Z,26.2168,-96.4998,2.0,2.018723369,21.29321253,-99999.0,'11111222,11111222,99999999' 
TABS,ioos:station:wmo:42045:1,2010-04-01T08:00:00Z,26.2168,-96.4998,2.0,7.401639576,23.90921371,-99999.0,'11111222,11111222,99999999' 
TABS,ioos:station:wmo:42045:1,2010-04-01T08:30:00Z,26.2168,-96.4998,2.0,12.30399967,21.82120299,-99999.0,'11111222,11111222,99999999' 
TABS,ioos:station:wmo:42045:1,2010-04-01T09:00:00Z,26.2168,-96.4998,2.0,15.68510536,23.26637273,-99999.0,'11111222,11111222,99999999' 
TABS,ioos:station:wmo:42045:1,2010-04-01T09:30:00Z,26.2168,-96.4998,2.0,25.92145531,23.88271341,-99999.0,'11111222,11111222,99999999' 
TABS,ioos:station:wmo:42045:1,2010-04-01T10:00:00Z,26.2168,-96.4998,2.0,31.38081254,23.33300024,-99999.0,'11111222,11111222,99999999' 
TABS,ioos:station:wmo:42045:1,2010-04-01T10:30:00Z,26.2168,-96.4998,2.0,34.67581681,20.47701394,-99999.0,'11111222,11111222,99999999' 
TABS,ioos:station:wmo:42045:1,2010-04-01T11:00:00Z,26.2168,-96.4998,2.0,48.12928199,20.85539019,-99999.0,'11111222,11111222,99999999' 
TABS,ioos:station:wmo:42045:1,2010-04-01T11:30:00Z,26.2168,-96.4998,2.0,49.2832964,22.05970308,-99999.0,'11111222,11111222,99999999' 
TABS,ioos:station:wmo:42045:1,2010-04-01T12:00:00Z,26.2168,-96.4998,2.0,56.20051532,21.76924895,-99999.0,'11111222,11111222,99999999' 
TABS,ioos:station:wmo:42045:1,2010-04-01T12:30:00Z,26.2168,-96.4998,2.0,58.35743739,22.43530477,-99999.0,'11111222,11111222,99999999' 
TABS,ioos:station:wmo:42045:1,2010-04-01T13:00:00Z,26.2168,-96.4998,2.0,62.11928734,19.86599356,-99999.0,'11111222,11111222,99999999' 
TABS,ioos:station:wmo:42045:1,2010-04-01T13:30:00Z,26.2168,-96.4998,2.0,69.85263214,19.3649503,-99999.0,'11111222,11111222,99999999' 
TABS,ioos:station:wmo:42045:1,2010-04-01T14:00:00Z,26.2168,-96.4998,2.0,68.81903285,20.06555756,-99999.0,'11111222,11111222,99999999' 
TABS,ioos:station:wmo:42045:1,2010-04-01T14:30:00Z,26.2168,-96.4998,2.0,71.87497854,21.63345788,-99999.0,'11111222,11111222,99999999' 
TABS,ioos:station:wmo:42045:1,2010-04-01T15:00:00Z,26.2168,-96.4998,2.0,72.55644246,21.75023908,-99999.0,'11111222,11111222,99999999' 
TABS,ioos:station:wmo:42045:1,2010-04-01T15:30:00Z,26.2168,-96.4998,2.0,66.21474461,21.67063682,-99999.0,'11111222,11111222,99999999' 
TABS,ioos:station:wmo:42045:1,2010-04-01T16:00:00Z,26.2168,-96.4998,2.0,70.60223291,21.82912275,-99999.0,'11111222,11111222,99999999' 
TABS,ioos:station:wmo:42045:1,2010-04-01T16:30:00Z,26.2168,-96.4998,2.0,71.81319991,21.17797205,-99999.0,'11111222,11111222,99999999' 
TABS,ioos:station:wmo:42045:1,2010-04-01T17:00:00Z,26.2168,-96.4998,2.0,72.59879134,22.43684915,-99999.0,'11111222,11111222,99999999' 
TABS,ioos:station:wmo:42045:1,2010-04-01T17:30:00Z,26.2168,-96.4998,2.0,81.32358659,20.61592831,-99999.0,'11111222,11111222,99999999' 
TABS,ioos:station:wmo:42045:1,2010-04-01T18:00:00Z,26.2168,-96.4998,2.0,80.27323894,20.30184721,-99999.0,'11111222,11111222,99999999' 
TABS,ioos:station:wmo:42045:1,2010-04-01T18:30:00Z,26.2168,-96.4998,2.0,72.10521128,17.44389865,-99999.0,'11111222,11111222,99999999' 
TABS,ioos:station:wmo:42045:1,2010-04-01T19:00:00Z,26.2168,-96.4998,2.0,72.73858399,16.98499338,-99999.0,'11111222,11111222,99999999' 
TABS,ioos:station:wmo:42045:1,2010-04-01T19:30:00Z,26.2168,-96.4998,2.0,73.22521561,16.70067364,-99999.0,'11111222,11111222,99999999' 
TABS,ioos:station:wmo:42045:1,2010-04-01T20:00:00Z,26.2168,-96.4998,2.0,83.92346242,17.75978603,-99999.0,'11111222,11111222,99999999' 
TABS,ioos:station:wmo:42045:1,2010-04-01T20:30:00Z,26.2168,-96.4998,2.0,83.38083981,15.87582439,-99999.0,'11111222,11111222,99999999' 
TABS,ioos:station:wmo:42045:1,2010-04-01T21:00:00Z,26.2168,-96.4998,2.0,88.81337841,17.38372802,-99999.0,'11111222,11111222,99999999' 
TABS,ioos:station:wmo:42045:1,2010-04-01T21:30:00Z,26.2168,-96.4998,2.0,88.43214654,15.71588368,-99999.0,'11111222,11111222,99999999' 
TABS,ioos:station:wmo:42045:1,2010-04-01T22:00:00Z,26.2168,-96.4998,2.0,96.55616104,16.99111533,-99999.0,'11111222,11111222,99999999' 
TABS,ioos:station:wmo:42045:1,2010-04-01T22:30:00Z,26.2168,-96.4998,2.0,97.61207052,17.36300953,-99999.0,'11111222,11111222,99999999' 
TABS,ioos:station:wmo:42045:1,2010-04-01T23:00:00Z,26.2168,-96.4998,2.0,105.9069383,14.33907249,-99999.0,'11111222,11111222,99999999' 
TABS,ioos:station:wmo:42045:1,2010-04-01T23:30:00Z,26.2168,-96.4998,2.0,104.3031282,15.09800649,-99999.0,'11111222,11111222,99999999' 
TABS,ioos:station:wmo:42045:1,2010-04-02T00:00:00Z,26.2168,-96.4998,2.0,109.4981157,13.1225493,-99999.0,'11111222,11111222,99999999' 
TABS,ioos:station:wmo:42045:1,2010-04-02T00:30:00Z,26.2168,-96.4998,2.0,99.84061649,11.70217501,-99999.0,'11111222,11111222,99999999' 
TABS,ioos:station:wmo:42045:1,2010-04-02T01:00:00Z,26.2168,-96.4998,2.0,113.0960641,11.01268814,-99999.0,'11111222,11111222,99999999' 
TABS,ioos:station:wmo:42045:1,2010-04-02T01:30:00Z,26.2168,-96.4998,2.0,110.0106494,12.41979871,-99999.0,'11111222,11111222,99999999' 
TABS,ioos:station:wmo:42045:1,2010-04-02T02:00:00Z,26.2168,-96.4998,2.0,97.16043298,12.03385225,-99999.0,'11111222,11111222,99999999' 
TABS,ioos:station:wmo:42045:1,2010-04-02T02:30:00Z,26.2168,-96.4998,2.0,108.2754697,12.50053199,-99999.0,'11111222,11111222,99999999' 
TABS,ioos:station:wmo:42045:1,2010-04-02T03:00:00Z,26.2168,-96.4998,2.0,106.3055202,8.085202533,-99999.0,'11133222,11111222,99999999' 
TABS,ioos:station:wmo:42045:1,2010-04-02T03:30:00Z,26.2168,-96.4998,2.0,115.2220922,7.251324017,-99999.0,'11133222,11111222,99999999' 
TABS,ioos:station:wmo:42045:1,2010-04-02T04:00:00Z,26.2168,-96.4998,2.0,138.632837,5.356491389,-99999.0,'11133222,11111222,99999999' 
TABS,ioos:station:wmo:42045:1,2010-04-02T04:30:00Z,26.2168,-96.4998,2.0,121.078967,5.114098161,-99999.0,'11133222,11111222,99999999' 
TABS,ioos:station:wmo:42045:1,2010-04-02T05:00:00Z,26.2168,-96.4998,2.0,165.5449334,2.323553313,-99999.0,'11133222,11111222,99999999' 
TABS,ioos:station:wmo:42045:1,2010-04-02T05:30:00Z,26.2168,-96.4998,2.0,141.3400717,0.128062485,-99999.0,'11133222,11111222,99999999' 
TABS,ioos:station:wmo:42045:1,2010-04-02T06:00:00Z,26.2168,-96.4998,2.0,137.7261994,0.445982062,-99999.0,'11133222,11111222,99999999' 
TABS,ioos:station:wmo:42045:1,2010-04-02T06:30:00Z,26.2168,-96.4998,2.0,304.80101,5.151359044,-99999.0,'11133222,11111222,99999999' 
TABS,ioos:station:wmo:42045:1,2010-04-02T07:00:00Z,26.2168,-96.4998,2.0,327.9467949,5.04983168,-99999.0,'11133222,11111222,99999999' 
TABS,ioos:station:wmo:42045:1,2010-04-02T07:30:00Z,26.2168,-96.4998,2.0,339.6666968,5.726866508,-99999.0,'11133222,11111222,99999999' 
TABS,ioos:station:wmo:42045:1,2010-04-02T08:00:00Z,26.2168,-96.4998,2.0,331.7317638,8.424755189,-99999.0,'11133222,11111222,99999999' 
TABS,ioos:station:wmo:42045:1,2010-04-02T08:30:00Z,26.2168,-96.4998,2.0,345.3251997,9.78934625,-99999.0,'11133222,11111222,99999999' 
TABS,ioos:station:wmo:42045:1,2010-04-02T09:00:00Z,26.2168,-96.4998,2.0,353.0939737,10.39542688,-99999.0,'11111222,11111222,99999999' 
TABS,ioos:station:wmo:42045:1,2010-04-02T09:30:00Z,26.2168,-96.4998,2.0,7.138489934,10.70295754,-99999.0,'11111222,11111222,99999999' 
TABS,ioos:station:wmo:42045:1,2010-04-02T10:00:00Z,26.2168,-96.4998,2.0,355.0779975,14.10200695,-99999.0,'11111222,11111222,99999999' 
TABS,ioos:station:wmo:42045:1,2010-04-02T10:30:00Z,26.2168,-96.4998,2.0,9.026655247,13.831287,-99999.0,'11111222,11111222,99999999' 
TABS,ioos:station:wmo:42045:1,2010-04-02T11:00:00Z,26.2168,-96.4998,2.0,8.524780246,13.76203837,-99999.0,'11111222,11111222,99999999' 
TABS,ioos:station:wmo:42045:1,2010-04-02T11:30:00Z,26.2168,-96.4998,2.0,23.10789747,14.905925,-99999.0,'11111222,11111222,99999999' 
TABS,ioos:station:wmo:42045:1,2010-04-02T12:00:00Z,26.2168,-96.4998,2.0,27.69674657,17.66390953,-99999.0,'11111222,11111222,99999999' 
TABS,ioos:station:wmo:42045:1,2010-04-02T12:30:00Z,26.2168,-96.4998,2.0,36.94850075,18.98201781,-99999.0,'11111222,11111222,99999999' 
TABS,ioos:station:wmo:42045:1,2010-04-02T13:00:00Z,26.2168,-96.4998,2.0,43.741701,20.92833725,-99999.0,'11111222,11111222,99999999' 
TABS,ioos:station:wmo:42045:1,2010-04-02T13:30:00Z,26.2168,-96.4998,2.0,47.62127723,22.7289793,-99999.0,'11111222,11111222,99999999' 
TABS,ioos:station:wmo:42045:1,2010-04-02T14:00:00Z,26.2168,-96.4998,2.0,49.85544701,25.31333443,-99999.0,'11111222,11111222,99999999' 
TABS,ioos:station:wmo:42045:1,2010-04-02T14:30:00Z,26.2168,-96.4998,2.0,61.20318347,25.26437215,-99999.0,'11111222,11111222,99999999' 
TABS,ioos:station:wmo:42045:1,2010-04-02T15:00:00Z,26.2168,-96.4998,2.0,64.17776502,25.52909712,-99999.0,'11111222,11111222,99999999' 
TABS,ioos:station:wmo:42045:1,2010-04-02T15:30:00Z,26.2168,-96.4998,2.0,66.08710718,23.48598092,-99999.0,'11111222,11111222,99999999' 
TABS,ioos:station:wmo:42045:1,2010-04-02T16:00:00Z,26.2168,-96.4998,2.0,77.53243759,24.36455828,-99999.0,'11111222,11111222,99999999' 
TABS,ioos:station:wmo:42045:1,2010-04-02T16:30:00Z,26.2168,-96.4998,2.0,82.24524591,24.82705178,-99999.0,'11111222,11111222,99999999' 
TABS,ioos:station:wmo:42045:1,2010-04-02T17:00:00Z,26.2168,-96.4998,2.0,89.06041637,23.78319785,-99999.0,'11111222,11111222,99999999' 
TABS,ioos:station:wmo:42045:1,2010-04-02T17:30:00Z,26.2168,-96.4998,2.0,91.755726,25.13179858,-99999.0,'11111222,11111222,99999999' 
TABS,ioos:station:wmo:42045:1,2010-04-02T18:00:00Z,26.2168,-96.4998,2.0,91.02070146,26.38418655,-99999.0,'11111222,11111222,99999999' 
TABS,ioos:station:wmo:42045:1,2010-04-02T18:30:00Z,26.2168,-96.4998,2.0,96.75130872,26.62462206,-99999.0,'11111222,11111222,99999999' 
TABS,ioos:station:wmo:42045:1,2010-04-02T19:00:00Z,26.2168,-96.4998,2.0,101.1042256,25.13048348,-99999.0,'11111222,11111222,99999999' 
TABS,ioos:station:wmo:42045:1,2010-04-02T19:30:00Z,26.2168,-96.4998,2.0,105.4948124,27.25043119,-99999.0,'11111222,11111222,99999999' 
TABS,ioos:station:wmo:42045:1,2010-04-02T20:00:00Z,26.2168,-96.4998,2.0,109.0918237,25.65092006,-99999.0,'11111222,11111222,99999999' 
TABS,ioos:station:wmo:42045:1,2010-04-02T20:30:00Z,26.2168,-96.4998,2.0,114.0107429,26.49242156,-99999.0,'11111222,11111222,99999999' 
TABS,ioos:station:wmo:42045:1,2010-04-02T21:00:00Z,26.2168,-96.4998,2.0,120.8767409,27.12424745,-99999.0,'11111222,11111222,99999999' 
TABS,ioos:station:wmo:42045:1,2010-04-02T21:30:00Z,26.2168,-96.4998,2.0,125.6658431,29.60253536,-99999.0,'11111222,11111222,99999999' 
TABS,ioos:station:wmo:42045:1,2010-04-02T22:00:00Z,26.2168,-96.4998,2.0,130.2508544,27.67216652,-99999.0,'11111222,11111222,99999999' 
TABS,ioos:station:wmo:42045:1,2010-04-02T22:30:00Z,26.2168,-96.4998,2.0,133.3463716,28.67097661,-99999.0,'11111222,11111222,99999999' 
TABS,ioos:station:wmo:42045:1,2010-04-02T23:00:00Z,26.2168,-96.4998,2.0,141.1040919,31.85190889,-99999.0,'11111222,11111222,99999999' 
TABS,ioos:station:wmo:42045:1,2010-04-02T23:30:00Z,26.2168,-96.4998,2.0,142.58025,31.89346798,-99999.0,'11111222,11111222,99999999' 
TABS,ioos:station:wmo:42045:1,2010-04-03T00:00:00Z,26.2168,-96.4998,2.0,149.8685578,33.28795878,-99999.0,'11111222,11111222,99999999' 
TABS,ioos:station:wmo:42045:1,2010-04-03T00:30:00Z,26.2168,-96.4998,2.0,156.1146717,33.85979474,-99999.0,'11111222,11111222,99999999' 
TABS,ioos:station:wmo:42045:1,2010-04-03T01:00:00Z,26.2168,-96.4998,2.0,156.120474,33.59580926,-99999.0,'11111222,11111222,99999999' 
TABS,ioos:station:wmo:42045:1,2010-04-03T01:30:00Z,26.2168,-96.4998,2.0,160.147966,35.80793208,-99999.0,'11111222,11111222,99999999' 
TABS,ioos:station:wmo:42045:1,2010-04-03T02:00:00Z,26.2168,-96.4998,2.0,171.9738456,34.23533847,-99999.0,'11111222,11111222,99999999' 
TABS,ioos:station:wmo:42045:1,2010-04-03T02:30:00Z,26.2168,-96.4998,2.0,172.0216235,35.73588812,-99999.0,'11111222,11111222,99999999' 
TABS,ioos:station:wmo:42045:1,2010-04-03T03:00:00Z,26.2168,-96.4998,2.0,176.4163559,35.19881958,-99999.0,'11111222,11111222,99999999' 
TABS,ioos:station:wmo:42045:1,2010-04-03T03:30:00Z,26.2168,-96.4998,2.0,181.8429532,33.26721209,-99999.0,'11111222,11111222,99999999' 
TABS,ioos:station:wmo:42045:1,2010-04-03T04:00:00Z,26.2168,-96.4998,2.0,189.4913415,32.20083384,-99999.0,'11111222,11111222,99999999' 
TABS,ioos:station:wmo:42045:1,2010-04-03T04:30:00Z,26.2168,-96.4998,2.0,195.5517385,30.80795352,-99999.0,'11111222,11111222,99999999' 
TABS,ioos:station:wmo:42045:1,2010-04-03T05:00:00Z,26.2168,-96.4998,2.0,201.3156313,32.21372689,-99999.0,'11111222,11111222,99999999' 
TABS,ioos:station:wmo:42045:1,2010-04-03T05:30:00Z,26.2168,-96.4998,2.0,206.1581449,31.50699129,-99999.0,'11111222,11111222,99999999' 
TABS,ioos:station:wmo:42045:1,2010-04-03T06:00:00Z,26.2168,-96.4998,2.0,209.7052403,30.69364266,-99999.0,'11111222,11111222,99999999' 
TABS,ioos:station:wmo:42045:1,2010-04-03T06:30:00Z,26.2168,-96.4998,2.0,219.7243022,28.99398041,-99999.0,'11111222,11111222,99999999' 
TABS,ioos:station:wmo:42045:1,2010-04-03T07:00:00Z,26.2168,-96.4998,2.0,228.1538976,30.71375099,-99999.0,'11111222,11111222,99999999' 
TABS,ioos:station:wmo:42045:1,2010-04-03T07:30:00Z,26.2168,-96.4998,2.0,236.0416001,29.05551411,-99999.0,'11111222,11111222,99999999' 
TABS,ioos:station:wmo:42045:1,2010-04-03T08:00:00Z,26.2168,-96.4998,2.0,242.0024972,25.05178636,-99999.0,'11111222,11111222,99999999' 
TABS,ioos:station:wmo:42045:1,2010-04-03T08:30:00Z,26.2168,-96.4998,2.0,247.320401,23.75693583,-99999.0,'11111222,11111222,99999999' 
TABS,ioos:station:wmo:42045:1,2010-04-03T09:00:00Z,26.2168,-96.4998,2.0,252.1406119,22.33629557,-99999.0,'11111222,11111222,99999999' 
TABS,ioos:station:wmo:42045:1,2010-04-03T09:30:00Z,26.2168,-96.4998,2.0,260.5544065,21.99822947,-99999.0,'11111222,11111222,99999999' 
TABS,ioos:station:wmo:42045:1,2010-04-03T10:00:00Z,26.2168,-96.4998,2.0,267.1482235,23.31887004,-99999.0,'11111222,11111222,99999999' 
TABS,ioos:station:wmo:42045:1,2010-04-03T10:30:00Z,26.2168,-96.4998,2.0,269.6566666,20.0503591,-99999.0,'11111222,11111222,99999999' 
TABS,ioos:station:wmo:42045:1,2010-04-03T11:00:00Z,26.2168,-96.4998,2.0,274.8351555,16.7295248,-99999.0,'11111222,11111222,99999999' 
TABS,ioos:station:wmo:42045:1,2010-04-03T11:30:00Z,26.2168,-96.4998,2.0,275.3221926,14.66320565,-99999.0,'11111222,11111222,99999999' 
TABS,ioos:station:wmo:42045:1,2010-04-03T12:00:00Z,26.2168,-96.4998,2.0,267.5138869,12.91214932,-99999.0,'11111222,11111222,99999999' 
TABS,ioos:station:wmo:42045:1,2010-04-03T12:30:00Z,26.2168,-96.4998,2.0,281.2043418,10.6020564,-99999.0,'11111222,11111222,99999999' 
TABS,ioos:station:wmo:42045:1,2010-04-03T13:00:00Z,26.2168,-96.4998,2.0,277.2509901,7.923357874,-99999.0,'11133222,11111222,99999999' 
TABS,ioos:station:wmo:42045:1,2010-04-03T13:30:00Z,26.2168,-96.4998,2.0,279.1835465,4.386217049,-99999.0,'11133222,11111222,99999999' 
TABS,ioos:station:wmo:42045:1,2010-04-03T14:00:00Z,26.2168,-96.4998,2.0,271.4567761,1.180381294,-99999.0,'11133222,11111222,99999999' 
TABS,ioos:station:wmo:42045:1,2010-04-03T14:30:00Z,26.2168,-96.4998,2.0,252.8051333,3.213627234,-99999.0,'11133222,11111222,99999999' 
TABS,ioos:station:wmo:42045:1,2010-04-03T15:00:00Z,26.2168,-96.4998,2.0,238.0240502,2.039436197,-99999.0,'11133222,11111222,99999999' 
TABS,ioos:station:wmo:42045:1,2010-04-03T15:30:00Z,26.2168,-96.4998,2.0,194.7194148,2.440081966,-99999.0,'11133222,11111222,99999999' 
TABS,ioos:station:wmo:42045:1,2010-04-03T16:00:00Z,26.2168,-96.4998,2.0,139.5656625,5.951512413,-99999.0,'11133222,11111222,99999999' 
TABS,ioos:station:wmo:42045:1,2010-04-03T16:30:00Z,26.2168,-96.4998,2.0,140.4529079,9.077907248,-99999.0,'11133222,11111222,99999999' 
TABS,ioos:station:wmo:42045:1,2010-04-03T17:00:00Z,26.2168,-96.4998,2.0,139.3287597,10.67949437,-99999.0,'11111222,11111222,99999999' 
TABS,ioos:station:wmo:42045:1,2010-04-03T17:30:00Z,26.2168,-96.4998,2.0,132.369534,11.24777756,-99999.0,'11111222,11111222,99999999' 
TABS,ioos:station:wmo:42045:1,2010-04-03T18:00:00Z,26.2168,-96.4998,2.0,139.7413671,12.14723837,-99999.0,'11111222,11111222,99999999' 
TABS,ioos:station:wmo:42045:1,2010-04-03T18:30:00Z,26.2168,-96.4998,2.0,145.7483815,16.41714043,-99999.0,'11111222,11111222,99999999' 
TABS,ioos:station:wmo:42045:1,2010-04-03T19:00:00Z,26.2168,-96.4998,2.0,152.7481216,17.16529056,-99999.0,'11111222,11111222,99999999' 
TABS,ioos:station:wmo:42045:1,2010-04-03T19:30:00Z,26.2168,-96.4998,2.0,158.1567615,15.31986945,-99999.0,'11111222,11111222,99999999' 
TABS,ioos:station:wmo:42045:1,2010-04-03T20:00:00Z,26.2168,-96.4998,2.0,190.101106,18.13104796,-99999.0,'11111222,11111222,99999999' 
TABS,ioos:station:wmo:42045:1,2010-04-03T20:30:00Z,26.2168,-96.4998,2.0,198.8158137,17.11462532,-99999.0,'11111222,11111222,99999999' 
TABS,ioos:station:wmo:42045:1,2010-04-03T21:00:00Z,26.2168,-96.4998,2.0,197.6016993,19.57656763,-99999.0,'11111222,11111222,99999999' 
TABS,ioos:station:wmo:42045:1,2010-04-03T21:30:00Z,26.2168,-96.4998,2.0,202.9923596,20.45504828,-99999.0,'11111222,11111222,99999999' 
TABS,ioos:station:wmo:42045:1,2010-04-03T22:00:00Z,26.2168,-96.4998,2.0,199.0162675,20.5621886,-99999.0,'11111222,11111222,99999999' 
TABS,ioos:station:wmo:42045:1,2010-04-03T22:30:00Z,26.2168,-96.4998,2.0,204.0538994,23.47889478,-99999.0,'11111222,11111222,99999999' 
TABS,ioos:station:wmo:42045:1,2010-04-03T23:00:00Z,26.2168,-96.4998,2.0,217.1573958,23.89030138,-99999.0,'11111222,11111222,99999999' 
TABS,ioos:station:wmo:42045:1,2010-04-03T23:30:00Z,26.2168,-96.4998,2.0,222.0906431,22.98938233,-99999.0,'11111222,11111222,99999999' 
TABS,ioos:station:wmo:42045:1,2010-04-04T00:00:00Z,26.2168,-96.4998,2.0,219.8805781,23.3782741,-99999.0,'11111222,11111222,99999999' 
TABS,ioos:station:wmo:42045:1,2010-04-04T00:30:00Z,26.2168,-96.4998,2.0,225.8129475,23.41466421,-99999.0,'11111222,11111222,99999999' 
TABS,ioos:station:wmo:42045:1,2010-04-04T01:00:00Z,26.2168,-96.4998,2.0,223.0782285,21.93264234,-99999.0,'11111222,11111222,99999999' 
TABS,ioos:station:wmo:42045:1,2010-04-04T01:30:00Z,26.2168,-96.4998,2.0,225.5961041,21.73764017,-99999.0,'11111222,11111222,99999999' 
TABS,ioos:station:wmo:42045:1,2010-04-04T02:00:00Z,26.2168,-96.4998,2.0,224.4128096,22.09117471,-99999.0,'11111222,11111222,99999999' 
TABS,ioos:station:wmo:42045:1,2010-04-04T02:30:00Z,26.2168,-96.4998,2.0,222.122119,22.67722426,-99999.0,'11111222,11111222,99999999' 
TABS,ioos:station:wmo:42045:1,2010-04-04T03:00:00Z,26.2168,-96.4998,2.0,223.6658568,23.39035913,-99999.0,'11111222,11111222,99999999' 
TABS,ioos:station:wmo:42045:1,2010-04-04T03:30:00Z,26.2168,-96.4998,2.0,225.1587894,22.91741914,-99999.0,'11111222,11111222,99999999' 
TABS,ioos:station:wmo:42045:1,2010-04-04T04:00:00Z,26.2168,-96.4998,2.0,224.8709303,25.17306497,-99999.0,'11111222,11111222,99999999' 
TABS,ioos:station:wmo:42045:1,2010-04-04T04:30:00Z,26.2168,-96.4998,2.0,230.1172615,21.95834466,-99999.0,'11111222,11111222,99999999' 
TABS,ioos:station:wmo:42045:1,2010-04-04T05:00:00Z,26.2168,-96.4998,2.0,231.2550103,21.09128967,-99999.0,'11111222,11111222,99999999' 
TABS,ioos:station:wmo:42045:1,2010-04-04T05:30:00Z,26.2168,-96.4998,2.0,234.913853,21.52043215,-99999.0,'11111222,11111222,99999999' 
TABS,ioos:station:wmo:42045:1,2010-04-04T06:00:00Z,26.2168,-96.4998,2.0,231.3691963,21.35207952,-99999.0,'11111222,11111222,99999999' 
TABS,ioos:station:wmo:42045:1,2010-04-04T06:30:00Z,26.2168,-96.4998,2.0,241.3026173,17.43103554,-99999.0,'11111222,11111222,99999999' 
TABS,ioos:station:wmo:42045:1,2010-04-04T07:00:00Z,26.2168,-96.4998,2.0,248.5902728,17.36849159,-99999.0,'11111222,11111222,99999999' 
TABS,ioos:station:wmo:42045:1,2010-04-04T07:30:00Z,26.2168,-96.4998,2.0,243.0004034,14.16366125,-99999.0,'11111222,11111222,99999999' 
TABS,ioos:station:wmo:42045:1,2010-04-04T08:00:00Z,26.2168,-96.4998,2.0,258.9574972,11.74748484,-99999.0,'11111222,11111222,99999999' 
TABS,ioos:station:wmo:42045:1,2010-04-04T08:30:00Z,26.2168,-96.4998,2.0,257.4658965,12.67199274,-99999.0,'11111222,11111222,99999999' 
TABS,ioos:station:wmo:42045:1,2010-04-04T09:00:00Z,26.2168,-96.4998,2.0,260.435412,10.17138142,-99999.0,'11111222,11111222,99999999' 
TABS,ioos:station:wmo:42045:1,2010-04-04T09:30:00Z,26.2168,-96.4998,2.0,260.4749334,9.064965527,-99999.0,'11133222,11111222,99999999' 
TABS,ioos:station:wmo:42045:1,2010-04-04T10:00:00Z,26.2168,-96.4998,2.0,272.0049503,8.0048985,-99999.0,'11133222,11111222,99999999' 
TABS,ioos:station:wmo:42045:1,2010-04-04T10:30:00Z,26.2168,-96.4998,2.0,253.0721056,7.693321779,-99999.0,'11133222,11111222,99999999' 
TABS,ioos:station:wmo:42045:1,2010-04-04T11:00:00Z,26.2168,-96.4998,2.0,287.9695186,4.667676081,-99999.0,'11133222,11111222,99999999' 
TABS,ioos:station:wmo:42045:1,2010-04-04T11:30:00Z,26.2168,-96.4998,2.0,311.7758006,6.034103082,-99999.0,'11133222,11111222,99999999' 
TABS,ioos:station:wmo:42045:1,2010-04-04T12:00:00Z,26.2168,-96.4998,2.0,348.024106,4.04811067,-99999.0,'11133222,11111222,99999999' 
TABS,ioos:station:wmo:42045:1,2010-04-04T12:30:00Z,26.2168,-96.4998,2.0,349.147745,3.93029261,-99999.0,'11133222,11111222,99999999' 
TABS,ioos:station:wmo:42045:1,2010-04-04T13:00:00Z,26.2168,-96.4998,2.0,11.62798088,5.656076379,-99999.0,'11133222,11111222,99999999' 
TABS,ioos:station:wmo:42045:1,2010-04-04T13:30:00Z,26.2168,-96.4998,2.0,25.47618534,7.765030586,-99999.0,'11133222,11111222,99999999' 
TABS,ioos:station:wmo:42045:1,2010-04-04T14:00:00Z,26.2168,-96.4998,2.0,37.81585464,7.633040023,-99999.0,'11133222,11111222,99999999' 
TABS,ioos:station:wmo:42045:1,2010-04-04T14:30:00Z,26.2168,-96.4998,2.0,33.76199822,6.639766562,-99999.0,'11133222,11111222,99999999' 
TABS,ioos:station:wmo:42045:1,2010-04-04T15:00:00Z,26.2168,-96.4998,2.0,63.99510005,7.777416023,-99999.0,'11133222,11111222,99999999' 
TABS,ioos:station:wmo:42045:1,2010-04-04T15:30:00Z,26.2168,-96.4998,2.0,67.32181568,6.795388142,-99999.0,'11133222,11111222,99999999' 
TABS,ioos:station:wmo:42045:1,2010-04-04T16:00:00Z,26.2168,-96.4998,2.0,80.5741398,7.7547018,-99999.0,'11133222,11111222,99999999' 